Regional Weather Roundup
Issued by NWS

Home | Current Version | Previous Version | Graphics & Text | Print | Product List | Glossary On
Versions: 1 2 3 4 5 6 7 8 9 10 11 12 13 14 15 16 17 18 19 20 21 22 23 24 25 26 27 28 29 30 31 32 33 34 35 36 37 38 39 40 41 42 43 44 45 46 47 48 49 50
483
ASUS43 KBIS 262210
RWRND

NORTH DAKOTA REGIONAL WEATHER ROUNDUP
NATIONAL WEATHER SERVICE BISMARCK ND
500 PM CDT THU APR 26 2018

NOTE: "FAIR" INDICATES FEW OR NO CLOUDS BELOW 12,000 FEET WITH NO
SIGNIFICANT WEATHER AND/OR OBSTRUCTIONS TO VISIBILITY.


NDZ001>003-009>011-017-262300-
NORTHWEST NORTH DAKOTA

CITY           SKY/WX    TMP DP  RH WIND       PRES   REMARKS
WILLISTON      SUNNY     70  26  19 W21G29    30.02F
MINOT          SUNNY     70  24  17 W29G36    29.94F
MINOT AFB      SUNNY     69  26  20 W22G30    29.92F
$$

NDZ018>021-031>035-040>046-262300-
SOUTHWEST NORTH DAKOTA

CITY           SKY/WX    TMP DP  RH WIND       PRES   REMARKS
BISMARCK       SUNNY     67  25  20 NW16G28   30.03F
DICKINSON      SUNNY     66  29  24 W22G29    30.05F
GARRISON         N/A     65  25  22 NW26G37   30.00F
HETTINGER ARPT SUNNY     65  28  24 W20G30    30.10F
$$

NDZ004>008-012>016-024-026-027-054-262300-
NORTHEAST NORTH DAKOTA

CITY           SKY/WX    TMP DP  RH WIND       PRES   REMARKS
GRAND FORKS    FAIR      60  32  34 NW13G21   29.96F
GRND FRKS AFB  PTSUNNY   63  28  26 NW15      29.96F
DEVILS LAKE    PTSUNNY   63  24  22 W21G26    29.96F
$$

NDZ022-023-025-028>030-036>039-047>053-262300-
SOUTHEAST NORTH DAKOTA

CITY           SKY/WX    TMP DP  RH WIND       PRES   REMARKS
FARGO          FAIR      59  30  33 NW16      30.00F
JAMESTOWN      SUNNY     64  24  21 W20G26    29.99F
$$





USA.gov is the U.S. government's official web portal to all federal, state and local government web resources and services.